Zurück zum Katalog

STARLINK-30106

AktivKommunikationVLEO
NORAD 56288·PAYLOAD·🇺🇸 United States

Gestartet Apr 19, 2023 von Cape Canaveral Space Force Station

Loading…

Nächste Überflüge (nächste 24 Stunden)

TLE

AktuellSource: CelesTrak SupGP

Epoche: Sep 14, 2026, 14:42 UTC

1 56288C 23056C   26257.61298611 -.00061641  00000+0 -22330-2 0  2579
2 56288  43.0019 221.9641 0001344 267.2931  91.6450 15.27603468    13

Verfolge STARLINK-30106 in Echtzeit mit AllMySat

Download on the App Store